contact:dominique.lefevre@mio.osupytheas.fr, maurice.libes@osupytheas.fr, didier.mallarino@osupytheas.fr
Project:EMSO http://www.emso-fr.org/EMSO-France
Depth: 2436.0 m
Title:EMSO Ligure Ouest : Data MII capteur CSTAR
DateTime,Latitude,Longitude,Instrument_Serial,Reference_Counts,Signal_Counts,Corrected_Signal_raw_counts,Calculated_Beam_c_inverse_meters,Internal_thermistor_counts
DateTime,Latitude,Longitude,Instrument_Serial,Reference_Counts,Signal_Counts,Corrected_Signal_raw_counts,Calculated_Beam_c_inverse_meters,Internal_thermistor_counts
2022-09-20T00:00:23,42.805,6.029,CST-1368DR,4577,5063,11775,01.129,551
2022-09-20T00:03:24,42.805,6.029,CST-1368DR,4577,5063,11775,01.129,551
2022-09-20T00:06:26,42.805,6.029,CST-1368DR,4577,5061,11771,01.131,551
2022-09-20T00:09:28,42.805,6.029,CST-1368DR,4577,5064,11776,01.129,551
2022-09-20T00:12:29,42.805,6.029,CST-1368DR,4577,5063,11775,01.129,551
2022-09-20T00:15:31,42.805,6.029,CST-1368DR,4577,5063,11775,01.129,551
2022-09-20T00:18:32,42.805,6.029,CST-1368DR,4577,5062,11773,01.130,551
2022-09-20T00:21:34,42.805,6.029,CST-1368DR,4577,5058,11764,01.133,551
2022-09-20T00:24:36,42.805,6.029,CST-1368DR,4577,5060,11768,01.132,551
2022-09-20T00:27:37,42.805,6.029,CST-1368DR,4577,5057,11761,01.134,551
2022-09-20T00:30:39,42.805,6.029,CST-1368DR,4577,5059,11765,01.133,551
2022-09-20T00:33:40,42.805,6.029,CST-1368DR,4577,5061,11771,01.131,551
2022-09-20T00:36:42,42.805,6.029,CST-1368DR,4577,5060,11767,01.132,551
2022-09-20T00:39:43,42.805,6.029,CST-1368DR,4577,5060,11769,01.131,551
2022-09-20T00:42:45,42.805,6.029,CST-1368DR,4577,5059,11766,01.132,551
2022-09-20T00:45:47,42.805,6.029,CST-1368DR,4577,5062,11773,01.130,551
2022-09-20T00:48:48,42.805,6.029,CST-1368DR,4577,5059,11766,01.132,551
2022-09-20T00:51:50,42.805,6.029,CST-1368DR,4577,5065,11779,01.128,551
2022-09-20T00:54:51,42.805,6.029,CST-1368DR,4577,5071,11794,01.123,551
2022-09-20T00:57:53,42.805,6.029,CST-1368DR,4577,5071,11793,01.123,551
2022-09-20T01:00:55,42.805,6.029,CST-1368DR,4577,5076,11804,01.119,551
2022-09-20T01:03:56,42.805,6.029,CST-1368DR,4577,5069,11789,01.125,551
2022-09-20T01:06:58,42.805,6.029,CST-1368DR,4577,5073,11798,01.121,551
2022-09-20T01:09:59,42.805,6.029,CST-1368DR,4577,5068,11787,01.125,551
2022-09-20T01:13:01,42.805,6.029,CST-1368DR,4577,5077,11807,01.118,551
2022-09-20T01:16:02,42.805,6.029,CST-1368DR,4577,5072,11797,01.122,551
2022-09-20T01:19:04,42.805,6.029,CST-1368DR,4577,5077,11807,01.118,551
2022-09-20T01:22:06,42.805,6.029,CST-1368DR,4577,5078,11810,01.117,551
2022-09-20T01:25:07,42.805,6.029,CST-1368DR,4577,5076,11806,01.119,551
2022-09-20T01:28:09,42.805,6.029,CST-1368DR,4577,5076,11805,01.119,551
2022-09-20T01:31:10,42.805,6.029,CST-1368DR,4577,5062,11773,01.130,551
2022-09-20T01:34:12,42.805,6.029,CST-1368DR,4577,5074,11800,01.121,551
2022-09-20T01:37:13,42.805,6.029,CST-1368DR,4577,5071,11794,01.123,551
2022-09-20T01:40:15,42.805,6.029,CST-1368DR,4577,5078,11811,01.117,551
2022-09-20T01:43:17,42.805,6.029,CST-1368DR,4577,5077,11808,01.118,551
2022-09-20T01:46:18,42.805,6.029,CST-1368DR,4577,5079,11811,01.117,551
2022-09-20T01:49:20,42.805,6.029,CST-1368DR,4577,5074,11800,01.121,551
2022-09-20T01:52:21,42.805,6.029,CST-1368DR,4577,5077,11808,01.118,551
2022-09-20T01:55:23,42.805,6.029,CST-1368DR,4577,5078,11811,01.117,551
2022-09-20T01:58:25,42.805,6.029,CST-1368DR,4577,5073,11799,01.121,551
2022-09-20T02:01:26,42.805,6.029,CST-1368DR,4577,5071,11793,01.123,551
2022-09-20T02:04:28,42.805,6.029,CST-1368DR,4577,5074,11801,01.120,551
2022-09-20T02:07:29,42.805,6.029,CST-1368DR,4577,5071,11794,01.123,551
2022-09-20T02:10:31,42.805,6.029,CST-1368DR,4577,5075,11803,01.120,551
2022-09-20T02:13:32,42.805,6.029,CST-1368DR,4577,5072,11797,01.122,551
2022-09-20T02:16:34,42.805,6.029,CST-1368DR,4577,5074,11801,01.120,551
2022-09-20T02:19:36,42.805,6.029,CST-1368DR,4577,5069,11789,01.125,551
2022-09-20T02:22:37,42.805,6.029,CST-1368DR,4577,5077,11808,01.118,551
2022-09-20T02:25:39,42.805,6.029,CST-1368DR,4577,5076,11805,01.119,551
2022-09-20T02:28:40,42.805,6.029,CST-1368DR,4577,5077,11807,01.118,551
2022-09-20T02:31:42,42.805,6.029,CST-1368DR,4577,5073,11797,01.122,551
2022-09-20T02:34:43,42.805,6.029,CST-1368DR,4577,5076,11805,01.119,551
2022-09-20T02:37:45,42.805,6.029,CST-1368DR,4577,5075,11802,01.120,551
2022-09-20T02:40:47,42.805,6.029,CST-1368DR,4577,5077,11808,01.118,551
2022-09-20T02:43:48,42.805,6.029,CST-1368DR,4577,5078,11810,01.117,551
2022-09-20T02:46:50,42.805,6.029,CST-1368DR,4577,5073,11799,01.121,551
2022-09-20T02:49:51,42.805,6.029,CST-1368DR,4577,5072,11796,01.122,551
2022-09-20T02:52:53,42.805,6.029,CST-1368DR,4577,5076,11805,01.119,551
2022-09-20T02:55:55,42.805,6.029,CST-1368DR,4577,5068,11787,01.125,551
2022-09-20T02:58:56,42.805,6.029,CST-1368DR,4577,5077,11807,01.118,551
2022-09-20T03:01:58,42.805,6.029,CST-1368DR,4577,5074,11800,01.121,551
2022-09-20T03:04:59,42.805,6.029,CST-1368DR,4577,5074,11800,01.121,551
2022-09-20T03:08:01,42.805,6.029,CST-1368DR,4577,5076,11805,01.119,551
2022-09-20T03:11:02,42.805,6.029,CST-1368DR,4577,5075,11803,01.120,551
2022-09-20T03:14:04,42.805,6.029,CST-1368DR,4577,5081,11818,01.115,551
2022-09-20T03:17:06,42.805,6.029,CST-1368DR,4577,5079,11813,01.116,551
2022-09-20T03:20:07,42.805,6.029,CST-1368DR,4577,5080,11814,01.116,551
2022-09-20T03:23:09,42.805,6.029,CST-1368DR,4577,5081,11817,01.115,551
2022-09-20T03:26:10,42.805,6.029,CST-1368DR,4577,5077,11808,01.118,551
2022-09-20T03:29:12,42.805,6.029,CST-1368DR,4577,5079,11813,01.116,551
2022-09-20T03:32:14,42.805,6.029,CST-1368DR,4577,5084,11823,01.113,551
2022-09-20T03:35:15,42.805,6.029,CST-1368DR,4577,5072,11795,01.122,551
2022-09-20T03:38:17,42.805,6.029,CST-1368DR,4577,5079,11812,01.117,551
2022-09-20T03:41:18,42.805,6.029,CST-1368DR,4577,5080,11815,01.116,551
2022-09-20T03:44:20,42.805,6.029,CST-1368DR,4577,5081,11816,01.115,551
2022-09-20T03:47:21,42.805,6.029,CST-1368DR,4577,5078,11809,01.118,551
2022-09-20T03:50:23,42.805,6.029,CST-1368DR,4577,5080,11814,01.116,551
2022-09-20T03:53:25,42.805,6.029,CST-1368DR,4577,5080,11815,01.116,551
2022-09-20T03:56:26,42.805,6.029,CST-1368DR,4577,5075,11802,01.120,551
2022-09-20T03:59:28,42.805,6.029,CST-1368DR,4577,5078,11809,01.118,551
2022-09-20T04:02:29,42.805,6.029,CST-1368DR,4577,5075,11803,01.120,551
2022-09-20T04:05:31,42.805,6.029,CST-1368DR,4577,5076,11806,01.119,551
2022-09-20T04:08:32,42.805,6.029,CST-1368DR,4577,5078,11810,01.117,551
2022-09-20T04:11:34,42.805,6.029,CST-1368DR,4577,5073,11798,01.121,551
2022-09-20T04:14:36,42.805,6.029,CST-1368DR,4577,5085,11826,01.112,551
2022-09-20T04:17:37,42.805,6.029,CST-1368DR,4577,5070,11790,01.124,551
2022-09-20T04:20:39,42.805,6.029,CST-1368DR,4577,5069,11790,01.124,551
2022-09-20T04:23:40,42.805,6.029,CST-1368DR,4577,5081,11818,01.115,551
2022-09-20T04:26:42,42.805,6.029,CST-1368DR,4577,5073,11798,01.121,551
2022-09-20T04:29:44,42.805,6.029,CST-1368DR,4577,5070,11791,01.124,551
2022-09-20T04:32:45,42.805,6.029,CST-1368DR,4577,5073,11797,01.122,551
2022-09-20T04:35:47,42.805,6.029,CST-1368DR,4577,5071,11794,01.123,551
2022-09-20T04:38:48,42.805,6.029,CST-1368DR,4577,5072,11796,01.122,551
2022-09-20T04:41:50,42.805,6.029,CST-1368DR,4577,5073,11798,01.121,551
2022-09-20T04:44:51,42.805,6.029,CST-1368DR,4577,5070,11791,01.124,551
2022-09-20T04:47:53,42.805,6.029,CST-1368DR,4577,5068,11787,01.125,551
2022-09-20T04:50:55,42.805,6.029,CST-1368DR,4576,5069,11792,01.123,551
2022-09-20T04:53:56,42.805,6.029,CST-1368DR,4577,5069,11790,01.124,551
2022-09-20T04:56:58,42.805,6.029,CST-1368DR,4577,5069,11790,01.124,551
2022-09-20T04:59:59,42.805,6.029,CST-1368DR,4577,5069,11789,01.125,551
2022-09-20T05:03:01,42.805,6.029,CST-1368DR,4577,5070,11791,01.124,551
2022-09-20T05:06:03,42.805,6.029,CST-1368DR,4577,5076,11805,01.119,551
2022-09-20T05:09:04,42.805,6.029,CST-1368DR,4577,5075,11802,01.120,551
2022-09-20T05:12:06,42.805,6.029,CST-1368DR,4577,5075,11802,01.120,551
2022-09-20T05:15:07,42.805,6.029,CST-1368DR,4577,5070,11792,01.123,551
2022-09-20T05:18:09,42.805,6.029,CST-1368DR,4576,5070,11793,01.123,551
2022-09-20T05:21:10,42.805,6.029,CST-1368DR,4576,5068,11790,01.124,551
2022-09-20T05:24:12,42.805,6.029,CST-1368DR,4577,5070,11790,01.124,551
2022-09-20T05:27:14,42.805,6.029,CST-1368DR,4576,5069,11792,01.123,551
2022-09-20T05:30:15,42.805,6.029,CST-1368DR,4577,5068,11787,01.125,551
2022-09-20T05:33:17,42.805,6.029,CST-1368DR,4577,5070,11790,01.124,551
2022-09-20T05:36:18,42.805,6.029,CST-1368DR,4577,5068,11787,01.125,551
2022-09-20T05:39:20,42.805,6.029,CST-1368DR,4577,5077,11808,01.118,551
2022-09-20T05:42:21,42.805,6.029,CST-1368DR,4577,5068,11787,01.125,551
2022-09-20T05:45:23,42.805,6.029,CST-1368DR,4577,5071,11794,01.123,551
2022-09-20T05:48:25,42.805,6.029,CST-1368DR,4577,5070,11791,01.124,551
2022-09-20T05:51:26,42.805,6.029,CST-1368DR,4577,5071,11794,01.123,551
2022-09-20T05:54:28,42.805,6.029,CST-1368DR,4577,5071,11793,01.123,551
2022-09-20T05:57:29,42.805,6.029,CST-1368DR,4577,5070,11791,01.124,551
2022-09-20T06:00:31,42.805,6.029,CST-1368DR,4577,5069,11790,01.124,551
2022-09-20T06:03:33,42.805,6.029,CST-1368DR,4577,5070,11791,01.124,551
2022-09-20T06:06:34,42.805,6.029,CST-1368DR,4576,5070,11793,01.123,551
2022-09-20T06:09:36,42.805,6.029,CST-1368DR,4577,5065,11779,01.128,551
2022-09-20T06:12:37,42.805,6.029,CST-1368DR,4577,5069,11789,01.125,551
2022-09-20T06:15:39,42.805,6.029,CST-1368DR,4577,5069,11790,01.124,551
2022-09-20T06:18:40,42.805,6.029,CST-1368DR,4577,5068,11787,01.125,551
2022-09-20T06:21:42,42.805,6.029,CST-1368DR,4577,5070,11790,01.124,551
2022-09-20T06:24:44,42.805,6.029,CST-1368DR,4577,5071,11793,01.123,551
2022-09-20T06:27:45,42.805,6.029,CST-1368DR,4577,5071,11794,01.123,551
2022-09-20T06:30:47,42.805,6.029,CST-1368DR,4577,5071,11794,01.123,551
2022-09-20T06:33:48,42.805,6.029,CST-1368DR,4576,5070,11793,01.123,551
2022-09-20T06:36:50,42.805,6.029,CST-1368DR,4576,5070,11794,01.123,551
2022-09-20T06:39:51,42.805,6.029,CST-1368DR,4576,5071,11797,01.122,551
2022-09-20T06:42:53,42.805,6.029,CST-1368DR,4577,5070,11791,01.124,551
2022-09-20T06:45:55,42.805,6.029,CST-1368DR,4576,5070,11793,01.123,551
2022-09-20T06:48:56,42.805,6.029,CST-1368DR,4576,5070,11793,01.123,551
2022-09-20T06:51:58,42.805,6.029,CST-1368DR,4576,5069,11792,01.123,551
2022-09-20T06:54:59,42.805,6.029,CST-1368DR,4576,5071,11796,01.122,551
2022-09-20T06:58:01,42.805,6.029,CST-1368DR,4576,5067,11788,01.125,551
2022-09-20T07:01:03,42.805,6.029,CST-1368DR,4576,5069,11791,01.124,551
2022-09-20T07:04:04,42.805,6.029,CST-1368DR,4576,5069,11792,01.123,551
2022-09-20T07:07:06,42.805,6.029,CST-1368DR,4576,5069,11792,01.123,551
2022-09-20T07:10:07,42.805,6.029,CST-1368DR,4577,5081,11816,01.115,551
2022-09-20T07:13:09,42.805,6.029,CST-1368DR,4576,5069,11792,01.123,551
2022-09-20T07:16:10,42.805,6.029,CST-1368DR,4576,5068,11790,01.124,551
2022-09-20T07:19:12,42.805,6.029,CST-1368DR,4577,5080,11814,01.116,551
2022-09-20T07:22:14,42.805,6.029,CST-1368DR,4576,5069,11792,01.123,551
2022-09-20T07:25:15,42.805,6.029,CST-1368DR,4576,5070,11794,01.123,551
2022-09-20T07:28:17,42.805,6.029,CST-1368DR,4577,5070,11790,01.124,551
2022-09-20T07:31:18,42.805,6.029,CST-1368DR,4576,5068,11789,01.125,551
2022-09-20T07:34:20,42.805,6.029,CST-1368DR,4576,5068,11789,01.125,551
2022-09-20T07:37:22,42.805,6.029,CST-1368DR,4577,5069,11789,01.125,551
2022-09-20T07:40:23,42.805,6.029,CST-1368DR,4576,5067,11788,01.125,551
2022-09-20T07:43:25,42.805,6.029,CST-1368DR,4576,5070,11793,01.123,551
2022-09-20T07:46:26,42.805,6.029,CST-1368DR,4577,5071,11793,01.123,551
2022-09-20T07:49:28,42.805,6.029,CST-1368DR,4576,5071,11795,01.122,551
2022-09-20T07:52:29,42.805,6.029,CST-1368DR,4576,5070,11794,01.123,551
2022-09-20T07:55:31,42.805,6.029,CST-1368DR,4576,5067,11788,01.125,551
2022-09-20T07:58:33,42.805,6.029,CST-1368DR,4576,5068,11790,01.124,551
2022-09-20T08:01:34,42.805,6.029,CST-1368DR,4577,5070,11791,01.124,551
2022-09-20T08:04:36,42.805,6.029,CST-1368DR,4576,5069,11792,01.123,551
2022-09-20T08:07:37,42.805,6.029,CST-1368DR,4576,5069,11791,01.124,551
2022-09-20T08:10:39,42.805,6.029,CST-1368DR,4576,5069,11791,01.124,551
2022-09-20T08:13:40,42.805,6.029,CST-1368DR,4576,5069,11792,01.123,551
2022-09-20T08:16:42,42.805,6.029,CST-1368DR,4576,5069,11792,01.123,551
2022-09-20T08:19:44,42.805,6.029,CST-1368DR,4576,5068,11790,01.124,551
2022-09-20T08:22:45,42.805,6.029,CST-1368DR,4576,5065,11782,01.127,551
2022-09-20T08:25:47,42.805,6.029,CST-1368DR,4576,5070,11793,01.123,551
2022-09-20T08:28:48,42.805,6.029,CST-1368DR,4576,5069,11792,01.123,551
2022-09-20T08:31:50,42.805,6.029,CST-1368DR,4576,5070,11793,01.123,551
2022-09-20T08:34:52,42.805,6.029,CST-1368DR,4576,5069,11792,01.123,551
2022-09-20T08:37:53,42.805,6.029,CST-1368DR,4576,5070,11793,01.123,551
2022-09-20T08:40:55,42.805,6.029,CST-1368DR,4576,5068,11788,01.125,551
2022-09-20T08:43:56,42.805,6.029,CST-1368DR,4576,5066,11783,01.127,551
2022-09-20T08:46:58,42.805,6.029,CST-1368DR,4576,5068,11789,01.125,551
2022-09-20T08:49:59,42.805,6.029,CST-1368DR,4576,5068,11788,01.125,551
2022-09-20T08:53:01,42.805,6.029,CST-1368DR,4576,5067,11788,01.125,551
2022-09-20T08:56:03,42.805,6.029,CST-1368DR,4576,5067,11786,01.126,551
2022-09-20T08:59:04,42.805,6.029,CST-1368DR,4576,5067,11788,01.125,551
2022-09-20T09:02:06,42.805,6.029,CST-1368DR,4576,5066,11785,01.126,551
2022-09-20T09:05:07,42.805,6.029,CST-1368DR,4576,5067,11787,01.125,551
2022-09-20T09:08:09,42.805,6.029,CST-1368DR,4576,5067,11786,01.126,551
2022-09-20T09:11:10,42.805,6.029,CST-1368DR,4576,5066,11784,01.126,551
2022-09-20T09:14:12,42.805,6.029,CST-1368DR,4576,5065,11782,01.127,551
2022-09-20T09:17:14,42.805,6.029,CST-1368DR,4576,5064,11781,01.127,551
2022-09-20T09:20:15,42.805,6.029,CST-1368DR,4576,5065,11782,01.127,551
2022-09-20T09:23:17,42.805,6.029,CST-1368DR,4576,5066,11783,01.127,551
2022-09-20T09:26:18,42.805,6.029,CST-1368DR,4576,5066,11785,01.126,551
2022-09-20T09:29:20,42.805,6.029,CST-1368DR,4576,5066,11783,01.127,551
2022-09-20T09:32:22,42.805,6.029,CST-1368DR,4576,5066,11785,01.126,551
2022-09-20T09:35:23,42.805,6.029,CST-1368DR,4576,5066,11784,01.126,551
2022-09-20T09:38:25,42.805,6.029,CST-1368DR,4576,5067,11786,01.126,551
2022-09-20T09:41:26,42.805,6.029,CST-1368DR,4576,5066,11785,01.126,551
2022-09-20T09:44:28,42.805,6.029,CST-1368DR,4576,5067,11786,01.126,551
2022-09-20T09:47:29,42.805,6.029,CST-1368DR,4576,5066,11785,01.126,551
2022-09-20T09:50:31,42.805,6.029,CST-1368DR,4576,5068,11788,01.125,551
2022-09-20T09:53:33,42.805,6.029,CST-1368DR,4576,5067,11787,01.125,551
2022-09-20T09:56:34,42.805,6.029,CST-1368DR,4576,5068,11788,01.125,551
2022-09-20T09:59:36,42.805,6.029,CST-1368DR,4576,5072,11798,01.121,551
2022-09-20T10:02:37,42.805,6.029,CST-1368DR,4576,5069,11792,01.123,551
2022-09-20T10:05:39,42.805,6.029,CST-1368DR,4576,5065,11782,01.127,551
2022-09-20T10:08:40,42.805,6.029,CST-1368DR,4576,5067,11788,01.125,551
2022-09-20T10:11:42,42.805,6.029,CST-1368DR,4576,5069,11792,01.123,551
2022-09-20T10:14:44,42.805,6.029,CST-1368DR,4576,5071,11796,01.122,551
2022-09-20T10:17:45,42.805,6.029,CST-1368DR,4576,5066,11785,01.126,551
2022-09-20T10:20:47,42.805,6.029,CST-1368DR,4576,5070,11793,01.123,551
2022-09-20T10:23:48,42.805,6.029,CST-1368DR,4576,5069,11792,01.123,551
2022-09-20T10:26:50,42.805,6.029,CST-1368DR,4576,5070,11793,01.123,551
2022-09-20T10:29:51,42.805,6.029,CST-1368DR,4576,5070,11794,01.123,551
2022-09-20T10:32:53,42.805,6.029,CST-1368DR,4576,5071,11796,01.122,551
2022-09-20T10:35:55,42.805,6.029,CST-1368DR,4576,5072,11799,01.121,551
2022-09-20T10:38:56,42.805,6.029,CST-1368DR,4576,5071,11796,01.122,551
2022-09-20T10:41:58,42.805,6.029,CST-1368DR,4576,5070,11793,01.123,551
2022-09-20T10:44:59,42.805,6.029,CST-1368DR,4576,5070,11793,01.123,551
2022-09-20T10:48:01,42.805,6.029,CST-1368DR,4576,5069,11792,01.123,551
2022-09-20T10:51:03,42.805,6.029,CST-1368DR,4576,5071,11796,01.122,551
2022-09-20T10:54:04,42.805,6.029,CST-1368DR,4576,5070,11793,01.123,551
2022-09-20T10:57:06,42.805,6.029,CST-1368DR,4576,5069,11791,01.124,551
2022-09-20T11:00:07,42.805,6.029,CST-1368DR,4576,5071,11795,01.122,551
2022-09-20T11:03:09,42.805,6.029,CST-1368DR,4576,5070,11794,01.123,551
2022-09-20T11:06:10,42.805,6.029,CST-1368DR,4576,5071,11796,01.122,551
2022-09-20T11:09:12,42.805,6.029,CST-1368DR,4576,5070,11794,01.123,551
2022-09-20T11:12:14,42.805,6.029,CST-1368DR,4576,5071,11796,01.122,551
2022-09-20T11:15:15,42.805,6.029,CST-1368DR,4576,5070,11794,01.123,551
2022-09-20T11:18:17,42.805,6.029,CST-1368DR,4576,5070,11794,01.123,551
2022-09-20T11:21:18,42.805,6.029,CST-1368DR,4576,5071,11796,01.122,551
2022-09-20T11:24:20,42.805,6.029,CST-1368DR,4576,5071,11795,01.122,551
2022-09-20T11:27:22,42.805,6.029,CST-1368DR,4576,5070,11793,01.123,551
2022-09-20T11:30:23,42.805,6.029,CST-1368DR,4576,5069,11792,01.123,551
2022-09-20T11:33:25,42.805,6.029,CST-1368DR,4576,5070,11793,01.123,551
2022-09-20T11:36:26,42.805,6.029,CST-1368DR,4576,5070,11793,01.123,551
2022-09-20T11:39:28,42.805,6.029,CST-1368DR,4576,5071,11795,01.122,551
2022-09-20T11:42:29,42.805,6.029,CST-1368DR,4576,5070,11794,01.123,551
2022-09-20T11:45:31,42.805,6.029,CST-1368DR,4576,5070,11793,01.123,551
2022-09-20T11:48:33,42.805,6.029,CST-1368DR,4576,5070,11793,01.123,551
2022-09-20T11:51:34,42.805,6.029,CST-1368DR,4576,5072,11798,01.121,551
2022-09-20T11:54:36,42.805,6.029,CST-1368DR,4576,5071,11796,01.122,551
2022-09-20T11:57:37,42.805,6.029,CST-1368DR,4576,5067,11788,01.125,551
2022-09-20T12:00:39,42.805,6.029,CST-1368DR,4576,5071,11795,01.122,551
2022-09-20T12:03:40,42.805,6.029,CST-1368DR,4576,5070,11793,01.123,551
2022-09-20T12:06:42,42.805,6.029,CST-1368DR,4576,5071,11795,01.122,551
2022-09-20T12:09:44,42.805,6.029,CST-1368DR,4576,5069,11792,01.123,551
2022-09-20T12:12:45,42.805,6.029,CST-1368DR,4576,5070,11794,01.123,551
2022-09-20T12:15:47,42.805,6.029,CST-1368DR,4576,5071,11795,01.122,551
2022-09-20T12:18:48,42.805,6.029,CST-1368DR,4576,5069,11792,01.123,551
2022-09-20T12:21:50,42.805,6.029,CST-1368DR,4576,5061,11774,01.130,551
2022-09-20T12:24:52,42.805,6.029,CST-1368DR,4576,5070,11794,01.123,551
2022-09-20T12:27:53,42.805,6.029,CST-1368DR,4576,5071,11796,01.122,551
2022-09-20T12:30:55,42.805,6.029,CST-1368DR,4576,5070,11793,01.123,551
2022-09-20T12:33:56,42.805,6.029,CST-1368DR,4576,5071,11795,01.122,551
2022-09-20T12:36:58,42.805,6.029,CST-1368DR,4576,5067,11787,01.125,551
2022-09-20T12:39:59,42.805,6.029,CST-1368DR,4576,5067,11788,01.125,551
2022-09-20T12:43:01,42.805,6.029,CST-1368DR,4576,5070,11794,01.123,551
2022-09-20T12:46:03,42.805,6.029,CST-1368DR,4576,5068,11788,01.125,551
2022-09-20T12:49:04,42.805,6.029,CST-1368DR,4576,5068,11790,01.124,551
2022-09-20T12:52:06,42.805,6.029,CST-1368DR,4576,5069,11791,01.124,551
2022-09-20T12:55:07,42.805,6.029,CST-1368DR,4576,5070,11794,01.123,551
2022-09-20T12:58:09,42.805,6.029,CST-1368DR,4576,5070,11793,01.123,551
2022-09-20T13:01:10,42.805,6.029,CST-1368DR,4576,5069,11792,01.123,551
2022-09-20T13:04:12,42.805,6.029,CST-1368DR,4576,5069,11791,01.124,551
2022-09-20T13:07:14,42.805,6.029,CST-1368DR,4576,5070,11793,01.123,551
2022-09-20T13:10:15,42.805,6.029,CST-1368DR,4576,5069,11792,01.123,551
2022-09-20T13:13:17,42.805,6.029,CST-1368DR,4576,5068,11790,01.124,551
2022-09-20T13:16:18,42.805,6.029,CST-1368DR,4576,5068,11790,01.124,551
2022-09-20T13:19:20,42.805,6.029,CST-1368DR,4576,5068,11789,01.125,551
2022-09-20T13:22:21,42.805,6.029,CST-1368DR,4576,5068,11790,01.124,551
2022-09-20T13:25:23,42.805,6.029,CST-1368DR,4576,5066,11784,01.126,551
2022-09-20T13:28:25,42.805,6.029,CST-1368DR,4576,5067,11786,01.126,551
2022-09-20T13:31:26,42.805,6.029,CST-1368DR,4576,5067,11786,01.126,551
2022-09-20T13:34:28,42.805,6.029,CST-1368DR,4576,5083,11823,01.113,551
2022-09-20T13:37:29,42.805,6.029,CST-1368DR,4576,5068,11789,01.125,550
2022-09-20T13:40:31,42.805,6.029,CST-1368DR,4576,5066,11784,01.126,551
2022-09-20T13:43:33,42.805,6.029,CST-1368DR,4576,5068,11788,01.125,551
2022-09-20T13:46:34,42.805,6.029,CST-1368DR,4576,5067,11787,01.125,551
2022-09-20T13:49:36,42.805,6.029,CST-1368DR,4576,5068,11789,01.125,551
2022-09-20T13:52:37,42.805,6.029,CST-1368DR,4576,5068,11789,01.125,551
2022-09-20T13:55:39,42.805,6.029,CST-1368DR,4576,5068,11789,01.125,551
2022-09-20T13:58:40,42.805,6.029,CST-1368DR,4576,5069,11792,01.123,551
2022-09-20T14:01:42,42.805,6.029,CST-1368DR,4576,5068,11789,01.125,551
2022-09-20T14:04:44,42.805,6.029,CST-1368DR,4576,5069,11792,01.123,551
2022-09-20T14:07:45,42.805,6.029,CST-1368DR,4576,5070,11793,01.123,551
2022-09-20T14:10:47,42.805,6.029,CST-1368DR,4576,5069,11792,01.123,551
2022-09-20T14:13:48,42.805,6.029,CST-1368DR,4576,5068,11790,01.124,551
2022-09-20T14:16:50,42.805,6.029,CST-1368DR,4576,5069,11792,01.123,551
2022-09-20T14:19:52,42.805,6.029,CST-1368DR,4576,5068,11790,01.124,551
2022-09-20T14:22:53,42.805,6.029,CST-1368DR,4576,5070,11793,01.123,551
2022-09-20T14:25:55,42.805,6.029,CST-1368DR,4576,5070,11793,01.123,551
2022-09-20T14:28:56,42.805,6.029,CST-1368DR,4576,5070,11793,01.123,551
2022-09-20T14:31:58,42.805,6.029,CST-1368DR,4576,5071,11796,01.122,551
2022-09-20T14:34:59,42.805,6.029,CST-1368DR,4576,5066,11783,01.127,551
2022-09-20T14:38:01,42.805,6.029,CST-1368DR,4576,5070,11794,01.123,551
2022-09-20T14:41:03,42.805,6.029,CST-1368DR,4576,5070,11794,01.123,551
2022-09-20T14:44:04,42.805,6.029,CST-1368DR,4576,5071,11796,01.122,551
2022-09-20T14:47:06,42.805,6.029,CST-1368DR,4576,5071,11796,01.122,551
2022-09-20T14:50:07,42.805,6.029,CST-1368DR,4576,5070,11794,01.123,551
2022-09-20T14:53:09,42.805,6.029,CST-1368DR,4576,5070,11793,01.123,551
2022-09-20T14:56:10,42.805,6.029,CST-1368DR,4576,5070,11794,01.123,551
2022-09-20T14:59:12,42.805,6.029,CST-1368DR,4576,5071,11796,01.122,551
2022-09-20T15:02:14,42.805,6.029,CST-1368DR,4576,5071,11795,01.122,551
2022-09-20T15:05:15,42.805,6.029,CST-1368DR,4576,5070,11793,01.123,551
2022-09-20T15:08:17,42.805,6.029,CST-1368DR,4576,5070,11794,01.123,551
2022-09-20T15:11:18,42.805,6.029,CST-1368DR,4576,5071,11796,01.122,551
2022-09-20T15:14:20,42.805,6.029,CST-1368DR,4576,5071,11796,01.122,551
2022-09-20T15:17:22,42.805,6.029,CST-1368DR,4576,5071,11795,01.122,551
2022-09-20T15:20:23,42.805,6.029,CST-1368DR,4576,5071,11795,01.122,551
2022-09-20T15:23:25,42.805,6.029,CST-1368DR,4576,5071,11795,01.122,551
2022-09-20T15:26:26,42.805,6.029,CST-1368DR,4576,5070,11793,01.123,551
2022-09-20T15:29:28,42.805,6.029,CST-1368DR,4576,5070,11793,01.123,551
2022-09-20T15:32:29,42.805,6.029,CST-1368DR,4576,5068,11789,01.125,551
2022-09-20T15:35:31,42.805,6.029,CST-1368DR,4576,5067,11786,01.126,551
2022-09-20T15:38:33,42.805,6.029,CST-1368DR,4576,5070,11794,01.123,551
2022-09-20T15:41:34,42.805,6.029,CST-1368DR,4576,5070,11794,01.123,551
2022-09-20T15:44:36,42.805,6.029,CST-1368DR,4576,5070,11794,01.123,551
2022-09-20T15:47:37,42.805,6.029,CST-1368DR,4576,5070,11794,01.123,551
2022-09-20T15:50:39,42.805,6.029,CST-1368DR,4576,5068,11788,01.125,551
2022-09-20T15:53:40,42.805,6.029,CST-1368DR,4576,5069,11792,01.123,551
2022-09-20T15:56:42,42.805,6.029,CST-1368DR,4576,5070,11794,01.123,551
2022-09-20T15:59:44,42.805,6.029,CST-1368DR,4576,5070,11793,01.123,551
2022-09-20T16:02:45,42.805,6.029,CST-1368DR,4576,5070,11794,01.123,551
2022-09-20T16:05:47,42.805,6.029,CST-1368DR,4576,5066,11785,01.126,551
2022-09-20T16:08:48,42.805,6.029,CST-1368DR,4576,5056,11761,01.134,551
2022-09-20T16:11:50,42.805,6.029,CST-1368DR,4576,5063,11778,01.128,551
2022-09-20T16:14:52,42.805,6.029,CST-1368DR,4576,5063,11776,01.129,551
2022-09-20T16:17:53,42.805,6.029,CST-1368DR,4576,5062,11776,01.129,551
2022-09-20T16:20:55,42.805,6.029,CST-1368DR,4576,5062,11775,01.129,551
2022-09-20T16:23:56,42.805,6.029,CST-1368DR,4576,5062,11776,01.129,551
2022-09-20T16:26:58,42.805,6.029,CST-1368DR,4576,5063,11778,01.128,551
2022-09-20T16:29:59,42.805,6.029,CST-1368DR,4576,5067,11786,01.126,551
2022-09-20T16:33:01,42.805,6.029,CST-1368DR,4576,5066,11784,01.126,551
2022-09-20T16:36:03,42.805,6.029,CST-1368DR,4576,5064,11779,01.128,551